SAVONLINNA current weather conditions

sailwx.info

Wind from 280 at 7 knots

Air temperature -4.0° C
Visibility: greater than 5.4 NM
Dewpoint -5.0° C
Present weather: Light snow.

Last reported at 2014-Dec-21 23:50 UTC.
Time now 2014-Dec-22 01:20 UTC

Location: N 61°57' E 028°57'.
View on Google Maps.

See reports from other nearby stations

  
Tides and Currents Weather Stations Pressure Air Temp Water Temp Dewpoint Dewpoint Depression Visibility Wind Speed Wind Dir Waves Ship Positions
date/time (UTC)wind fromknots sea level pressurealtimeterstation pressurevisibilityair tempwater tempwave heightnotes
2014-Dec-22 00:50 290 7 1.2-4.0 Light snow.
2014-Dec-22 00:20 280 9 1.5-4.0 Light snow.
2014-Dec-21 23:50 280 7 5.4-4.0 Light snow.
2014-Dec-21 23:20 280 8 5.4-4.0
2014-Dec-21 22:50 280 8 5.4-4.0
2014-Dec-21 22:20 280 8 5.4-4.0
2014-Dec-21 21:50 270 7 5.4-4.0
2014-Dec-21 21:20 270 9 5.4-4.0
2014-Dec-21 20:50 280 7 5.4-4.0
2014-Dec-21 20:20 280 8 5.4-4.0 Light snow showers.
2014-Dec-21 19:50 290 7 5.4-4.0
2014-Dec-21 19:20 290 8 5.4-4.0 Light snow showers.
2014-Dec-21 18:50 290 9 5.4-3.0 Light snow.
2014-Dec-21 18:20 280 8 4.3-3.0 Light snow.
2014-Dec-21 17:50 290 9 4.9-3.0 Light snow.
2014-Dec-21 17:20 290 10 3.2-3.0 Light snow.
2014-Dec-21 16:50 290 8 1.9-3.0 Light snow.
2014-Dec-21 16:20 260 8 1.2-3.0 Light snow.
2014-Dec-21 15:50 260 8 3.2-3.0 Light snow.
2014-Dec-21 15:20 260 10 2.0-3.0 Light snow.
2014-Dec-21 14:50 250 8 2.7-3.0 Light snow.
2014-Dec-21 14:20 240 9 1.0-3.0 Snow.
2014-Dec-21 13:50 240 8 1.0-3.0 Snow.
2014-Dec-21 13:20 250 8 1.0-3.0 Snow.
2014-Dec-21 12:50 250 8 1.3-3.0 Light snow.
2014-Dec-21 12:20 250 7 1.6-3.0 Light snow.
2014-Dec-21 11:50 250 10 1.7-3.0 Light snow.
2014-Dec-21 11:20 250 10 2.3-3.0 Light snow.
2014-Dec-21 10:50 250 10 3.2-2.0 Light snow.
2014-Dec-21 10:20 240 10 2.7-2.0 Light snow.
2014-Dec-21 09:50 250 10 3.2-2.0 Light snow.
2014-Dec-21 09:20 250 11 1.9-2.0 Light snow.
2014-Dec-21 08:50 250 12 2.7-2.0 Light snow.
2014-Dec-21 08:20 250 13 5.4-2.0 Light snow.
2014-Dec-21 07:50 250 11 5.4-2.0 Light snow.
2014-Dec-21 07:20 250 10 3.8-2.0 Light snow.
2014-Dec-21 06:50 250 8 5.4-2.0 Light snow.
2014-Dec-21 06:20 250 9 5.4-1.0 Light snow.
2014-Dec-21 05:50 250 10 5.4-1.0 Light snow.
2014-Dec-21 05:20 250 10 5.4-2.0 Light snow.
2014-Dec-21 04:50 250 10 1.2-2.0 Light snow.
2014-Dec-21 04:20 250 8 2.2-2.0 Light snow.
2014-Dec-21 03:50 250 9 2.3-2.0 Light snow.
2014-Dec-21 03:20 250 10 5.4-2.0 Light snow.
2014-Dec-21 02:50 250 9 5.4-2.0 Light snow.
2014-Dec-21 02:20 250 9 2.7-2.0 Light snow.
2014-Dec-21 01:50 250 9 2.6-2.0 Light snow.
2014-Dec-21 01:20 250 8 5.4-2.0 Light snow.
2014-Dec-21 00:50 240 8 2.3-2.0 Light snow.
2014-Dec-21 00:20 250 9 1.9-2.0 Light snow.
2014-Dec-20 23:50 250 8 3.8-2.0 Light snow.
2014-Dec-20 23:20 250 7 1.2-2.0 Light snow.
2014-Dec-20 22:50 250 11 5.4-2.0 Light snow.
2014-Dec-20 22:20 240 8 5.4-2.0 Light snow.
2014-Dec-20 21:50 240 8 3.2-1.0 Light snow.
2014-Dec-20 21:20 250 7 4.9-1.0 Light snow.
2014-Dec-20 20:50 250 8 5.4-1.0 Light snow.
2014-Dec-20 20:20 240 7 5.4-1.0 Light snow.
2014-Dec-20 19:50 240 7 5.4-1.0 Light snow.
2014-Dec-20 19:20 240 7 5.4-1.0 Light snow.
2014-Dec-20 18:50 240 7 5.4-1.0
2014-Dec-20 18:20 240 8 5.4-0.0
2014-Dec-20 17:50 240 7 5.4-0.0
2014-Dec-20 17:20 230 7 5.4-0.0
2014-Dec-20 16:50 230 8 5.4-0.0
2014-Dec-20 16:20 230 10 gusting 20 5.4-0.0
2014-Dec-20 15:50 230 7 5.4-0.0 Light snow showers.
2014-Dec-20 15:20 230 6 5.4-0.0 Light rain showers.
2014-Dec-20 14:50 230 7 5.4-0.0
2014-Dec-20 14:20 220 7 5.4-0.0
2014-Dec-20 13:50 230 8 5.4-0.0
2014-Dec-20 13:20 230 9 5.4-0.0
2014-Dec-20 12:50 220 9 gusting 19 5.4-0.0
2014-Dec-20 12:20 210 8 5.4 1.0
2014-Dec-20 11:50 220 7 5.4 1.0
2014-Dec-20 11:20 220 8 5.4-0.0 Light rain showers.
2014-Dec-20 10:50 220 7 5.4-0.0 Light rain showers.
2014-Dec-20 10:20 210 8 5.4-0.0 Light precipitation.
2014-Dec-20 09:50 210 8 5.4 1.0
2014-Dec-20 09:20 200 8 5.4 1.0 Light snow showers.
2014-Dec-20 08:50 210 8 5.4 1.0
2014-Dec-20 08:20 200 8 5.4 1.0
2014-Dec-20 07:50 200 8 4.9-0.0 Light rain.
2014-Dec-20 07:20 200 7 2.7-0.0 Light rain.
2014-Dec-20 06:50 190 7 1.6-0.0 Light rain.
2014-Dec-20 06:20 190 8 5.4 1.0
2014-Dec-20 05:50 180 7 5.4 1.0
2014-Dec-20 05:20 180 7 5.4 1.0 Light snow showers.
2014-Dec-20 04:50 200 5 4.3 1.0 Light rain showers.
2014-Dec-20 04:20 200 5 3.2 1.0 Light rain showers.
2014-Dec-20 03:50 190 4 5.4 1.0 Light rain showers.
2014-Dec-20 03:20 200 6 5.4 1.0
2014-Dec-20 02:50 200 6 5.4 1.0 Light rain showers.
2014-Dec-20 02:20 200 8 5.4 1.0 Light precipitation showers.
2014-Dec-20 01:50 200 7 5.4 1.0
2014-Dec-20 01:20 200 5 5.4 1.0